Location: Azul
(36.7830°S, 59.8500°W)
Time: 11:00:43
(UTC-03:00)

XW-2F - Visible Passes

Search period start: 22 October 2021 00:00
Search period end: 01 November 2021 00:00
Orbit: 496 x 518 km, 97.5° (Epoch: 22 October)

Date Brightness Start Highest point End Pass type
(mag) Time Alt. Az. Time Alt. Az. Time Alt. Az.
24 Oct ? 20:18:52 10° SW 20:20:43 13° WSW 20:22:32 10° W visible
25 Oct ? 05:21:56 10° E 05:23:44 13° ESE 05:25:32 10° SE visible
25 Oct ? 20:00:28 10° SSW 20:03:22 21° WSW 20:06:14 10° WNW visible
29 Oct ? 20:25:51 10° SW 20:26:55 11° WSW 20:27:59 10° W visible
30 Oct ? 05:27:40 10° ENE 05:29:56 15° ESE 05:32:15 10° SSE visible
30 Oct ? 20:06:59 10° SSW 20:09:34 18° WSW 20:12:07 10° WNW visible
